Weather in Nizhniye Yuri

Russia / Udmurt Republic     56°24′26″N   52°43′02″E
temp.,
°C
wind,
m/s
gust,
m/s
humid.,
%
clouds,
%
prec.,
mm/h
press.,
hPa
HPBL,
m
24 january, mon
mon2401:00−9s2395100 0.3 103599
04:00−9ssw2396100 0.6 103576
07:00−9sw1297100 0.4 103640
10:00−10wsw1297100 0.4 103641
13:00−7wnw1292100 0.0 1036180
16:00−11sw119716 0.0 103610
19:00−16wsw1110095 0.0 10379
22:00−18sw11100100 0.0 10369
25 january, tue
tue2501:00−19sw22100100 0.0 10359
04:00−20sw11100100 0.1 10349
07:00−20ssw22100100 0.0 103314
10:00−18ssw119952 0.0 103130
13:00−11ssw34875 0.0 1030178
16:00−13s24935 0.0 102958
19:00−19s229922 0.0 102820
22:00−19s23100100 0.0 102744
26 january, wed
wed2601:00−21s2210058 0.0 102626
04:00−22sse2210074 0.0 102611
07:00−21sse2310097 0.0 102437
10:00−18sse2610099 0.0 1023102
13:00−12s3595100 0.0 1022195
16:00−11sse2596100 0.1 1021197
19:00−11se2597100 0.0 1020136
22:00−11se2496100 0.1 1018133
27 january, thu
thu2701:00−10sse2596100 0.6 1018204
04:00−9s2596100 1.1 1017172
07:00−12ssw259780 0.1 101880
10:00−13ssw269875 0.1 1019120
13:00−9sw369298 0.0 1020301
16:00−9s2496100 0.1 1020137
19:00−12sse249892 0.0 102071
22:00−12sse249877 0.1 101966
28 january, fri
fri2801:00−14s229988 0.1 101916
04:00−16ssw119988 0.2 10199
07:00−19s1110097 0.1 10189
10:00−17ssw1110098 0.1 101823
13:00−11ssw119395 0.1 1017160
16:00−13sse119854 0.1 10179
19:00−19ssw0010093 0.0 10179
22:00−21ssw11100100 0.0 10179